{"data":{"norad_id":23467,"intl_designator":"1995-003A","name":"UFO 4 (USA 108)","alt_names":[],"object_type":"PAYLOAD","status":"ACTIVE","operator":null,"country":"US","launch_date":"1995-01-29","launch_site_code":"AFETR","launch_vehicle":null,"mission":null,"orbit_class":"UNKNOWN","rcs_meters":30.352,"size_class":null,"mass_kg":null,"dimensions":null,"purposes":["comms"],"wikipedia_slug":null,"has_3d_model":false,"image_url":null,"decayed_at":null,"tle_current":{"epoch":"2026-05-24T20:00:28.598112Z","epoch_age_seconds":85628,"freshness":"FRESH","line1":"1 23467U 95003A   26144.83366433 -.00000030  00000+0  00000+0 0  9994","line2":"2 23467   9.6970  13.3099 0003151  41.5091 300.0341  1.00268703114712","mean_motion":1.00268703,"eccentricity":0.0003151,"inclination_deg":9.697,"raan_deg":13.3099,"arg_perigee_deg":41.5091,"mean_anomaly_deg":300.0341,"bstar":0,"rev_number":11471,"period_min":1436.1410459254,"perigee_km":35774.172600508,"apogee_km":35800.745359095,"semimajor_km":42165.595979801,"source":"CELESTRAK","updated_at":"2026-05-25T13:38:13.805625Z"}}}